TimeEST,TemperatureF,Dew PointF,Humidity,Sea Level PressureIn,VisibilityMPH,Wind Direction,Wind SpeedMPH,Gust SpeedMPH,PrecipitationIn,Events,Conditions,WindDirDegrees,DateUTC
12:53 AM,39.9,28.9,65,30.18,10.0,WNW,4.6,-,N/A,,Clear,300,2011-11-24 05:53:00
1:53 AM,39.0,30.0,70,30.19,10.0,WNW,8.1,-,N/A,,Clear,300,2011-11-24 06:53:00
2:53 AM,36.0,28.9,76,30.20,10.0,WNW,5.8,-,N/A,,Clear,290,2011-11-24 07:53:00
3:53 AM,37.9,28.9,70,30.21,10.0,Calm,Calm,-,N/A,,Clear,0,2011-11-24 08:53:00
6:53 AM,36.0,28.0,73,30.27,10.0,SSW,5.8,-,N/A,,Clear,200,2011-11-24 11:53:00
8:53 AM,42.1,28.9,60,30.30,10.0,SW,6.9,-,N/A,,Clear,220,2011-11-24 13:53:00
9:53 AM,46.9,30.9,54,30.30,10.0,Variable,4.6,-,N/A,,Clear,0,2011-11-24 14:53:00
10:53 AM,51.1,33.1,50,30.31,10.0,West,8.1,-,N/A,,Clear,280,2011-11-24 15:53:00
11:53 AM,52.0,33.1,49,30.30,10.0,WSW,8.1,-,N/A,,Clear,250,2011-11-24 16:53:00
12:53 PM,54.0,34.0,47,30.28,10.0,SW,8.1,-,N/A,,Clear,230,2011-11-24 17:53:00
1:53 PM,55.9,35.1,45,30.27,10.0,WSW,4.6,-,N/A,,Clear,250,2011-11-24 18:53:00
2:53 PM,57.9,35.1,42,30.27,10.0,WNW,9.2,-,N/A,,Clear,290,2011-11-24 19:53:00
3:53 PM,57.0,36.0,45,30.27,10.0,West,8.1,-,N/A,,Clear,270,2011-11-24 20:53:00
5:53 PM,54.0,34.0,47,30.29,10.0,WSW,6.9,-,N/A,,Clear,240,2011-11-24 22:53:00
6:53 PM,52.0,34.0,50,30.28,10.0,South,6.9,-,N/A,,Clear,190,2011-11-24 23:53:00
7:53 PM,52.0,33.1,49,30.29,10.0,SW,8.1,-,N/A,,Clear,220,2011-11-25 00:53:00
8:53 PM,51.1,32.0,48,30.29,10.0,WSW,4.6,-,N/A,,Clear,250,2011-11-25 01:53:00
9:53 PM,48.0,33.1,56,30.30,10.0,West,6.9,-,N/A,,Clear,270,2011-11-25 02:53:00
10:53 PM,48.9,32.0,52,30.29,10.0,West,8.1,-,N/A,,Clear,270,2011-11-25 03:53:00
11:53 PM,50.0,32.0,50,30.29,10.0,WSW,8.1,-,N/A,,Clear,250,2011-11-25 04:53:00